Find Starlink 36809

NORAD ID: 67929 Int'l Des: 2026-036 Owner: SPXS Country: US Constellation: starlink operational
LEOCIRCULAR

实时位置

正在加载3D地球...

关于 Starlink 36809

正在加载描述...

即将过境

Passes for default location (London). Set your location on the main map for personalized predictions.

高度历史

Loading altitude history...

两行轨道根数

1 67929U 26036AB 26119.55862050 .00018251 00000-0 67061-3 0 9990
2 67929 43.0007 317.8169 0001456 268.6904 91.3781 15.27603867 11506
Epoch: Apr 29, 2026 • Age: 6 hours

当前状态

高度 486.1 km
速度 7.62 km/s
星下点 -17.44°S, 145.46°E
发射日期 Feb 22, 2026
运行时间 0.1 years
类型 internet

技术详情

分类 Payload
质量 575.00 kg
干质量 530.00 kg
总质量 575.00 kg
长度 0.30 m
直径 4.10 m
跨度 29.00 m
形状 Box + pan
制造商 SPXS
平台类型 Starlink V2MO
阶段状态 In Orbit
所有者/国家 SPXS/US

Most Searched